DAL1031 KATL-KEWR

Flight info

Callsign DAL1031
Flight time 1h 50m
Altitude 37000
Route PLMMR3 BURGG Q22 UMBRE QUART PHLBO4
Aircraft B739/M-SDE2E3FGHIRWXY/LB1

Departure

Time 2026-05-03 20:15
Airport Hartsfield Jackson Atlanta International Airport (KATL)

Arrival

Time 2026-05-03 22:05
Airport Newark Liberty International Airport (KEWR)
Time Latitude Longitude Altitude Speed Heading
2026-05-03 20:15 33.53401 -84.58510 8461 ft 288 kts 181°
2026-05-03 20:15 33.51399 -84.58484 9231 ft 291 kts 182°
2026-05-03 20:15 33.49358 -84.58390 9981 ft 298 kts 171°
2026-05-03 20:15 33.47435 -84.57420 10673 ft 304 kts 143°
2026-05-03 20:16 33.46051 -84.55487 11174 ft 317 kts 116°
2026-05-03 20:16 33.45537 -84.52874 11326 ft 337 kts 90°
2026-05-03 20:16 33.45552 -84.49977 11503 ft 357 kts 88°
2026-05-03 20:16 33.45604 -84.46915 11748 ft 374 kts 88°
2026-05-03 20:17 33.45631 -84.43758 12326 ft 382 kts 89°
2026-05-03 20:17 33.45628 -84.40562 13003 ft 385 kts 89°
2026-05-03 20:17 33.45614 -84.37343 13622 ft 389 kts 88°
2026-05-03 20:17 33.46042 -84.34175 14143 ft 392 kts 67°
2026-05-03 20:18 33.47382 -84.31350 14702 ft 390 kts 48°
2026-05-03 20:18 33.49234 -84.28966 15273 ft 392 kts 43°
2026-05-03 20:18 33.51175 -84.26630 15800 ft 396 kts 42°
2026-05-03 20:18 33.53143 -84.24292 16336 ft 400 kts 42°
2026-05-03 20:19 33.55108 -84.21951 16868 ft 404 kts 42°
2026-05-03 20:19 33.57106 -84.19553 17371 ft 408 kts 43°
2026-05-03 20:19 33.59116 -84.17124 17887 ft 412 kts 43°
2026-05-03 20:19 33.61154 -84.14649 18385 ft 416 kts 43°
2026-05-03 20:20 33.63197 -84.12158 18825 ft 420 kts 43°
2026-05-03 20:20 33.65231 -84.09671 19289 ft 422 kts 43°
2026-05-03 20:20 33.67411 -84.07002 19770 ft 425 kts 43°
2026-05-03 20:20 33.69380 -84.04590 20221 ft 428 kts 43°
2026-05-03 20:21 33.71453 -84.02048 20672 ft 431 kts 43°
2026-05-03 20:21 33.73561 -83.99462 21104 ft 435 kts 43°
2026-05-03 20:21 33.75696 -83.96841 21561 ft 438 kts 43°
2026-05-03 20:21 33.77838 -83.94210 22009 ft 441 kts 43°
2026-05-03 20:22 33.79987 -83.91569 22448 ft 444 kts 43°
2026-05-03 20:22 33.82129 -83.88933 22870 ft 447 kts 43°
2026-05-03 20:22 33.84309 -83.86250 23290 ft 450 kts 43°
2026-05-03 20:22 33.86513 -83.83533 23693 ft 454 kts 43°
2026-05-03 20:23 33.88728 -83.80801 24050 ft 457 kts 43°
2026-05-03 20:23 33.90957 -83.78049 24383 ft 460 kts 43°
2026-05-03 20:23 33.93177 -83.75308 24700 ft 463 kts 43°
2026-05-03 20:23 33.95429 -83.72510 25029 ft 467 kts 44°
2026-05-03 20:24 33.97536 -83.69505 25351 ft 472 kts 49°
2026-05-03 20:24 33.99510 -83.66311 25680 ft 475 kts 52°
2026-05-03 20:24 34.01436 -83.63042 25991 ft 479 kts 52°
2026-05-03 20:24 34.03361 -83.59757 26289 ft 481 kts 52°
2026-05-03 20:25 34.05294 -83.56492 26603 ft 484 kts 51°
2026-05-03 20:25 34.07279 -83.53189 26885 ft 487 kts 51°
2026-05-03 20:25 34.09286 -83.49882 27182 ft 490 kts 51°
2026-05-03 20:25 34.11314 -83.46560 27466 ft 493 kts 51°
2026-05-03 20:26 34.12666 -83.44351 27679 ft 494 kts 51°
2026-05-03 20:26 34.15406 -83.39871 28067 ft 498 kts 51°
2026-05-03 20:26 34.17472 -83.36489 28365 ft 500 kts 51°
2026-05-03 20:26 34.19546 -83.33087 28640 ft 503 kts 51°
2026-05-03 20:27 34.21600 -83.29713 28917 ft 505 kts 51°
2026-05-03 20:27 34.23691 -83.26273 29236 ft 507 kts 51°
2026-05-03 20:27 34.25075 -83.23993 29503 ft 507 kts 51°
2026-05-03 20:27 34.27865 -83.19395 30093 ft 505 kts 51°
2026-05-03 20:28 34.29942 -83.15971 30454 ft 504 kts 51°
2026-05-03 20:28 34.32001 -83.12578 30712 ft 506 kts 50°
2026-05-03 20:28 34.34100 -83.09144 30953 ft 507 kts 50°
2026-05-03 20:28 34.36205 -83.05710 31237 ft 508 kts 50°
2026-05-03 20:29 34.38316 -83.02266 31527 ft 508 kts 50°
2026-05-03 20:29 34.40424 -82.98822 31794 ft 509 kts 50°
2026-05-03 20:29 34.42504 -82.95416 32046 ft 510 kts 50°
2026-05-03 20:29 34.44617 -82.91953 32312 ft 510 kts 50°
2026-05-03 20:30 34.46735 -82.88475 32574 ft 511 kts 50°
2026-05-03 20:30 34.48825 -82.85039 32825 ft 512 kts 50°
2026-05-03 20:30 34.50939 -82.81560 33055 ft 512 kts 50°
2026-05-03 20:30 34.53063 -82.78061 33298 ft 513 kts 50°
2026-05-03 20:31 34.55179 -82.74572 33573 ft 513 kts 50°
2026-05-03 20:31 34.57304 -82.71066 33819 ft 513 kts 50°
2026-05-03 20:31 34.59392 -82.67616 34045 ft 514 kts 50°
2026-05-03 20:31 34.61512 -82.64110 34245 ft 515 kts 50°
2026-05-03 20:32 34.63639 -82.60590 34457 ft 515 kts 50°
2026-05-03 20:32 34.65757 -82.57080 34674 ft 514 kts 50°
2026-05-03 20:32 34.67867 -82.53564 34887 ft 515 kts 50°
2026-05-03 20:32 34.69958 -82.50021 35072 ft 515 kts 51°
2026-05-03 20:33 34.72033 -82.46475 35262 ft 516 kts 51°
2026-05-03 20:33 34.74085 -82.42957 35442 ft 516 kts 51°
2026-05-03 20:33 34.76169 -82.39381 35629 ft 516 kts 51°
2026-05-03 20:33 34.78251 -82.35813 35798 ft 516 kts 51°
2026-05-03 20:34 34.80335 -82.32242 35965 ft 517 kts 51°
2026-05-03 20:34 34.82419 -82.28672 36119 ft 517 kts 51°
2026-05-03 20:34 34.84480 -82.25137 36288 ft 517 kts 51°
2026-05-03 20:34 34.86559 -82.21570 36482 ft 516 kts 51°
2026-05-03 20:35 34.88639 -82.17997 36668 ft 516 kts 51°
2026-05-03 20:35 34.90715 -82.14427 36795 ft 517 kts 51°
2026-05-03 20:35 34.92799 -82.10840 36928 ft 518 kts 51°
2026-05-03 20:35 34.94883 -82.07249 37061 ft 518 kts 51°
2026-05-03 20:36 34.96962 -82.03660 37108 ft 517 kts 51°
2026-05-03 20:36 35.01107 -81.96499 37115 ft 518 kts 51°
2026-05-03 20:37 35.05285 -81.89350 37115 ft 519 kts 49°
2026-05-03 20:37 35.09634 -81.82364 37115 ft 519 kts 48°
2026-05-03 20:38 35.14060 -81.75331 37113 ft 521 kts 48°
2026-05-03 20:38 35.18436 -81.68299 37113 ft 521 kts 49°
2026-05-03 20:39 35.22808 -81.61216 37112 ft 521 kts 49°
2026-05-03 20:39 35.27165 -81.54134 37111 ft 520 kts 49°
2026-05-03 20:40 35.31480 -81.47109 37109 ft 519 kts 49°
2026-05-03 20:40 35.35821 -81.40032 37102 ft 518 kts 49°
2026-05-03 20:41 35.40152 -81.32957 37103 ft 517 kts 49°
2026-05-03 20:41 35.44442 -81.25932 37114 ft 516 kts 49°
2026-05-03 20:42 35.48752 -81.18863 37111 ft 516 kts 49°
2026-05-03 20:42 35.53034 -81.11824 37120 ft 517 kts 49°
2026-05-03 20:43 35.57339 -81.04735 37121 ft 517 kts 49°
2026-05-03 20:43 35.61653 -80.97626 37126 ft 518 kts 49°
2026-05-03 20:44 35.65947 -80.90542 37106 ft 519 kts 48°
2026-05-03 20:44 35.70261 -80.83407 37111 ft 520 kts 48°
2026-05-03 20:45 35.74575 -80.76256 37101 ft 520 kts 48°
2026-05-03 20:45 35.78894 -80.69082 37104 ft 521 kts 48°
2026-05-03 20:46 35.83194 -80.61923 37101 ft 521 kts 48°
2026-05-03 20:46 35.87502 -80.54736 37102 ft 521 kts 48°
2026-05-03 20:47 35.91782 -80.47582 37105 ft 521 kts 48°
2026-05-03 20:47 35.96083 -80.40377 37104 ft 521 kts 48°
2026-05-03 20:48 36.00377 -80.33162 37098 ft 520 kts 48°
2026-05-03 20:48 36.04629 -80.25986 37102 ft 520 kts 48°
2026-05-03 20:49 36.08904 -80.18754 37108 ft 520 kts 48°
2026-05-03 20:49 36.13176 -80.11515 37108 ft 520 kts 48°
2026-05-03 20:50 36.17415 -80.04319 37110 ft 520 kts 49°
2026-05-03 20:50 36.21688 -79.97076 37111 ft 520 kts 48°
2026-05-03 20:51 36.25964 -79.89835 37112 ft 520 kts 48°
2026-05-03 20:51 36.30211 -79.82627 37098 ft 520 kts 48°
2026-05-03 20:52 36.34478 -79.75363 37091 ft 520 kts 48°
2026-05-03 20:52 36.38718 -79.68128 37096 ft 520 kts 48°
2026-05-03 20:53 36.42284 -79.62031 37097 ft 521 kts 48°
2026-05-03 20:53 36.46520 -79.54774 37105 ft 521 kts 48°
2026-05-03 20:54 36.50782 -79.47457 37106 ft 522 kts 48°
2026-05-03 20:54 36.57166 -79.36470 37106 ft 523 kts 48°
2026-05-03 20:55 36.61418 -79.29130 37106 ft 523 kts 48°
2026-05-03 20:55 36.65646 -79.21816 37104 ft 523 kts 48°
2026-05-03 20:56 36.69898 -79.14439 37068 ft 524 kts 49°
2026-05-03 20:56 36.74152 -79.07043 37094 ft 523 kts 48°
2026-05-03 20:57 36.78372 -78.99706 37096 ft 523 kts 48°
2026-05-03 20:57 36.82607 -78.92319 37095 ft 523 kts 49°
2026-05-03 20:58 36.86810 -78.84932 37095 ft 523 kts 49°
2026-05-03 20:58 36.90999 -78.77531 37092 ft 522 kts 49°
2026-05-03 20:59 36.95194 -78.70104 37094 ft 522 kts 49°
2026-05-03 20:59 36.99364 -78.62709 37095 ft 522 kts 49°
2026-05-03 21:00 37.02845 -78.56527 37097 ft 522 kts 49°
2026-05-03 21:00 37.07735 -78.47820 37087 ft 522 kts 49°
2026-05-03 21:01 37.11891 -78.40404 37082 ft 522 kts 49°
2026-05-03 21:01 37.16054 -78.32957 37080 ft 522 kts 49°
2026-05-03 21:02 37.20213 -78.25470 37063 ft 524 kts 51°
2026-05-03 21:02 37.23893 -78.17520 37087 ft 528 kts 57°
2026-05-03 21:03 37.27364 -78.09383 37085 ft 528 kts 57°
2026-05-03 21:03 37.30867 -78.01322 37092 ft 528 kts 56°
2026-05-03 21:04 37.34433 -77.93230 37091 ft 529 kts 56°
2026-05-03 21:04 37.38183 -77.85299 37080 ft 521 kts 45°
2026-05-03 21:05 37.43125 -77.78908 37097 ft 504 kts 29°
2026-05-03 21:05 37.48926 -77.74210 37100 ft 494 kts 22°
2026-05-03 21:06 37.54765 -77.69631 37101 ft 499 kts 23°
2026-05-03 21:06 37.60612 -77.64883 37099 ft 501 kts 24°
2026-05-03 21:07 37.66480 -77.60102 37090 ft 503 kts 24°
2026-05-03 21:07 37.72377 -77.55309 37092 ft 504 kts 24°
2026-05-03 21:08 37.78285 -77.50509 37079 ft 504 kts 24°
2026-05-03 21:08 37.84154 -77.45739 37075 ft 503 kts 24°
2026-05-03 21:09 37.90047 -77.40936 37083 ft 502 kts 24°
2026-05-03 21:09 37.95889 -77.36166 37084 ft 501 kts 24°
2026-05-03 21:10 38.01754 -77.31371 37079 ft 499 kts 24°
2026-05-03 21:10 38.07552 -77.26627 37071 ft 498 kts 24°
2026-05-03 21:11 38.13379 -77.21851 37069 ft 497 kts 24°
2026-05-03 21:11 38.19189 -77.17078 37068 ft 496 kts 25°
2026-05-03 21:12 38.24954 -77.12333 37073 ft 495 kts 25°
2026-05-03 21:12 38.30718 -77.07481 37073 ft 498 kts 27°
2026-05-03 21:13 38.36264 -77.02198 37083 ft 501 kts 30°
2026-05-03 21:13 38.41792 -76.96766 37078 ft 501 kts 30°
2026-05-03 21:14 38.47351 -76.91354 37086 ft 501 kts 30°
2026-05-03 21:14 38.52884 -76.86003 37071 ft 501 kts 30°
2026-05-03 21:15 38.58455 -76.80613 37060 ft 502 kts 30°
2026-05-03 21:15 38.64029 -76.75204 37052 ft 502 kts 30°
2026-05-03 21:16 38.69561 -76.69823 37047 ft 502 kts 30°
2026-05-03 21:16 38.75126 -76.64402 37050 ft 501 kts 30°
2026-05-03 21:17 38.79749 -76.59890 37052 ft 501 kts 30°
2026-05-03 21:17 38.86195 -76.53586 37055 ft 500 kts 30°
2026-05-03 21:18 38.91762 -76.48131 36638 ft 508 kts 30°
2026-05-03 21:18 38.94544 -76.45403 36048 ft 508 kts 30°
2026-05-03 21:18 38.97340 -76.42647 35589 ft 501 kts 29°
2026-05-03 21:19 39.00086 -76.39939 35160 ft 494 kts 29°
2026-05-03 21:19 39.02803 -76.37251 34702 ft 490 kts 30°
2026-05-03 21:19 39.05411 -76.34424 34177 ft 490 kts 32°
2026-05-03 21:19 39.07946 -76.31479 33479 ft 490 kts 34°
2026-05-03 21:20 39.10449 -76.28497 32670 ft 491 kts 34°
2026-05-03 21:20 39.12929 -76.25538 31875 ft 491 kts 34°
2026-05-03 21:20 39.15451 -76.22550 31100 ft 490 kts 35°
2026-05-03 21:20 39.17966 -76.19592 30342 ft 489 kts 35°
2026-05-03 21:21 39.20483 -76.16644 29660 ft 485 kts 35°
2026-05-03 21:21 39.22962 -76.13741 29071 ft 478 kts 35°
2026-05-03 21:21 39.25405 -76.10878 28485 ft 471 kts 35°
2026-05-03 21:21 39.27821 -76.08044 27852 ft 466 kts 35°
2026-05-03 21:22 39.30214 -76.05233 27240 ft 461 kts 36°
2026-05-03 21:22 39.32541 -76.02498 26642 ft 457 kts 36°
2026-05-03 21:22 39.34885 -75.99738 26062 ft 452 kts 36°
2026-05-03 21:22 39.37199 -75.97012 25491 ft 448 kts 36°
2026-05-03 21:23 39.39502 -75.94297 24942 ft 444 kts 36°
2026-05-03 21:23 39.41005 -75.92523 24631 ft 440 kts 36°
2026-05-03 21:23 39.43975 -75.89014 24090 ft 431 kts 36°
2026-05-03 21:23 39.46176 -75.86409 23710 ft 426 kts 36°
2026-05-03 21:24 39.48367 -75.83819 23306 ft 427 kts 36°
2026-05-03 21:24 39.50563 -75.81225 22896 ft 429 kts 36°
2026-05-03 21:24 39.52770 -75.78612 22497 ft 428 kts 36°
2026-05-03 21:24 39.54222 -75.76888 22243 ft 425 kts 36°
2026-05-03 21:25 39.57092 -75.73477 21757 ft 420 kts 36°
2026-05-03 21:25 39.59236 -75.70927 21397 ft 416 kts 36°
2026-05-03 21:25 39.61364 -75.68394 21036 ft 413 kts 36°
2026-05-03 21:25 39.63476 -75.65881 20683 ft 411 kts 36°
2026-05-03 21:26 39.65582 -75.63372 20333 ft 409 kts 36°
2026-05-03 21:26 39.67672 -75.60880 19987 ft 407 kts 36°
2026-05-03 21:26 39.69758 -75.58383 19579 ft 407 kts 36°
2026-05-03 21:26 39.71837 -75.55884 19174 ft 406 kts 37°
2026-05-03 21:27 39.73880 -75.53422 18776 ft 405 kts 37°
2026-05-03 21:27 39.75936 -75.50940 18376 ft 402 kts 37°
2026-05-03 21:27 39.77980 -75.48471 17923 ft 397 kts 37°
2026-05-03 21:27 39.79992 -75.46039 17562 ft 390 kts 37°
2026-05-03 21:28 39.81302 -75.44454 17305 ft 387 kts 37°
2026-05-03 21:28 39.83926 -75.41282 16776 ft 382 kts 37°
2026-05-03 21:28 39.85209 -75.39731 16519 ft 380 kts 37°
2026-05-03 21:28 39.87424 -75.37051 16082 ft 377 kts 37°
2026-05-03 21:29 39.89345 -75.34724 15707 ft 375 kts 37°
2026-05-03 21:29 39.91251 -75.32413 15333 ft 372 kts 37°
2026-05-03 21:29 39.92509 -75.30888 15086 ft 371 kts 37°
2026-05-03 21:29 39.95005 -75.27857 14595 ft 369 kts 37°
2026-05-03 21:30 39.96879 -75.25579 14228 ft 367 kts 38°
2026-05-03 21:30 39.98738 -75.23318 13866 ft 365 kts 38°
2026-05-03 21:30 40.00593 -75.21058 13453 ft 364 kts 38°
2026-05-03 21:30 40.02448 -75.18798 13049 ft 362 kts 38°
2026-05-03 21:31 40.04283 -75.16559 12670 ft 360 kts 38°
2026-05-03 21:31 40.06113 -75.14325 12309 ft 357 kts 38°
2026-05-03 21:31 40.07312 -75.12862 12065 ft 356 kts 38°
2026-05-03 21:31 40.09113 -75.10661 11717 ft 353 kts 38°
2026-05-03 21:32 40.10893 -75.08483 11360 ft 347 kts 38°
2026-05-03 21:32 40.12623 -75.06364 11017 ft 340 kts 38°
2026-05-03 21:32 40.14333 -75.04268 10713 ft 333 kts 38°
2026-05-03 21:32 40.16007 -75.02214 10417 ft 325 kts 38°
2026-05-03 21:33 40.18179 -74.99549 10022 ft 312 kts 37°
2026-05-03 21:33 40.19202 -74.98290 10006 ft 296 kts 37°
2026-05-03 21:33 40.20650 -74.96506 9953 ft 277 kts 37°
2026-05-03 21:33 40.22037 -74.94804 9735 ft 271 kts 36°
2026-05-03 21:34 40.23411 -74.93121 9378 ft 271 kts 37°
2026-05-03 21:34 40.24775 -74.91448 9026 ft 270 kts 37°
2026-05-03 21:34 40.26124 -74.89724 8690 ft 270 kts 40°
2026-05-03 21:34 40.27410 -74.87925 8323 ft 271 kts 41°
2026-05-03 21:35 40.28688 -74.86109 8100 ft 270 kts 41°
2026-05-03 21:35 40.30380 -74.83709 8037 ft 271 kts 41°
2026-05-03 21:35 40.31221 -74.82519 8032 ft 266 kts 41°
2026-05-03 21:35 40.32448 -74.80783 8017 ft 252 kts 40°
2026-05-03 21:36 40.33609 -74.79145 8021 ft 238 kts 40°
2026-05-03 21:36 40.34712 -74.77590 8017 ft 228 kts 40°
2026-05-03 21:36 40.35801 -74.76063 8031 ft 231 kts 40°
2026-05-03 21:36 40.36918 -74.74498 8056 ft 238 kts 40°
2026-05-03 21:37 40.38437 -74.72365 8044 ft 241 kts 40°
2026-05-03 21:37 40.39191 -74.71303 8041 ft 240 kts 40°
2026-05-03 21:37 40.40328 -74.69700 8036 ft 241 kts 40°
2026-05-03 21:37 40.41539 -74.68009 8075 ft 265 kts 39°
2026-05-03 21:38 40.43032 -74.66754 8027 ft 252 kts 10°
2026-05-03 21:38 40.44739 -74.66254 8018 ft 253 kts
2026-05-03 21:38 40.46473 -74.65804 8012 ft 255 kts
2026-05-03 21:38 40.48227 -74.65347 8009 ft 257 kts
2026-05-03 21:39 40.49984 -74.64886 7999 ft 257 kts
2026-05-03 21:39 40.51719 -74.64427 7994 ft 257 kts
2026-05-03 21:39 40.53465 -74.63962 7998 ft 256 kts
2026-05-03 21:39 40.55212 -74.63496 7993 ft 255 kts
2026-05-03 21:40 40.56949 -74.63032 8000 ft 254 kts
2026-05-03 21:40 40.58684 -74.62567 7993 ft 253 kts
2026-05-03 21:40 40.60409 -74.62104 8006 ft 252 kts
2026-05-03 21:40 40.62119 -74.61646 8002 ft 252 kts
2026-05-03 21:41 40.63840 -74.61184 8000 ft 252 kts
2026-05-03 21:41 40.65558 -74.60723 7999 ft 251 kts
2026-05-03 21:41 40.67267 -74.60265 7998 ft 250 kts
2026-05-03 21:41 40.68978 -74.59806 7999 ft 250 kts
2026-05-03 21:42 40.70663 -74.59353 8006 ft 250 kts
2026-05-03 21:42 40.72375 -74.58893 8004 ft 251 kts
2026-05-03 21:42 40.74089 -74.58432 8000 ft 251 kts
2026-05-03 21:42 40.75804 -74.57970 8014 ft 251 kts
2026-05-03 21:43 40.77517 -74.57509 8005 ft 252 kts
2026-05-03 21:43 40.79214 -74.57052 8007 ft 252 kts
2026-05-03 21:43 40.80938 -74.56587 8009 ft 252 kts
2026-05-03 21:43 40.82665 -74.56121 8017 ft 253 kts
2026-05-03 21:44 40.84343 -74.55354 7987 ft 263 kts 26°
2026-05-03 21:44 40.85699 -74.53639 7763 ft 281 kts 51°
2026-05-03 21:44 40.86462 -74.51218 7441 ft 292 kts 75°
2026-05-03 21:44 40.86544 -74.48531 7118 ft 295 kts 90°
2026-05-03 21:45 40.86385 -74.45858 6792 ft 295 kts 92°
2026-05-03 21:45 40.86178 -74.43120 6462 ft 294 kts 93°
2026-05-03 21:45 40.85976 -74.40476 6133 ft 293 kts 93°
2026-05-03 21:45 40.85777 -74.37799 5797 ft 291 kts 93°
2026-05-03 21:46 40.85587 -74.35154 5442 ft 285 kts 92°
2026-05-03 21:46 40.85408 -74.32602 5109 ft 279 kts 92°
2026-05-03 21:46 40.85234 -74.30077 4778 ft 272 kts 92°
2026-05-03 21:46 40.85066 -74.27622 4507 ft 264 kts 92°
2026-05-03 21:47 40.84903 -74.25238 4242 ft 257 kts 92°
2026-05-03 21:47 40.84745 -74.22918 3959 ft 249 kts 92°
2026-05-03 21:47 40.84591 -74.20659 3702 ft 245 kts 92°
2026-05-03 21:47 40.84441 -74.18436 3456 ft 245 kts 92°
2026-05-03 21:48 40.84288 -74.16196 3182 ft 245 kts 92°
2026-05-03 21:48 40.84134 -74.13972 3016 ft 241 kts 92°
2026-05-03 21:48 40.83987 -74.11864 3017 ft 233 kts 92°
2026-05-03 21:48 40.83781 -74.09748 2983 ft 237 kts 105°
2026-05-03 21:49 40.82909 -74.07939 2913 ft 239 kts 144°
2026-05-03 21:49 40.81437 -74.07180 2786 ft 219 kts 181°
2026-05-03 21:49 40.79974 -74.07111 2705 ft 204 kts 184°
2026-05-03 21:49 40.78597 -74.07068 2606 ft 199 kts 185°
2026-05-03 21:50 40.77238 -74.07025 2532 ft 197 kts 185°
2026-05-03 21:50 40.75868 -74.07060 2444 ft 195 kts 199°
2026-05-03 21:50 40.74648 -74.07746 2274 ft 190 kts 215°
2026-05-03 21:50 40.73482 -74.08557 2013 ft 186 kts 213°
2026-05-03 21:51 40.72386 -74.09295 1899 ft 167 kts 214°
2026-05-03 21:51 40.71365 -74.09980 1912 ft 164 kts 215°
2026-05-03 21:51 40.70595 -74.10931 1891 ft 144 kts 252°
2026-05-03 21:51 40.70182 -74.12172 1540 ft 159 kts 254°
2026-05-03 21:52 40.69928 -74.13619 1031 ft 159 kts 274°
2026-05-03 21:52 40.70056 -74.15050 995 ft 163 kts 281°
2026-05-03 21:52 40.70249 -74.16498 1373 ft 161 kts 282°
2026-05-03 21:52 40.70409 -74.17889 1978 ft 147 kts 281°
2026-05-03 21:53 40.70554 -74.19303 2003 ft 167 kts 278°
2026-05-03 21:53 40.70633 -74.20910 1972 ft 182 kts 275°
2026-05-03 21:53 40.70702 -74.22626 2015 ft 189 kts 276°
2026-05-03 21:53 40.70778 -74.24356 2366 ft 189 kts 277°
2026-05-03 21:54 40.70866 -74.26088 2707 ft 195 kts 277°
2026-05-03 21:54 40.70966 -74.27881 2986 ft 204 kts 277°
2026-05-03 21:54 40.71083 -74.29856 2985 ft 220 kts 277°
2026-05-03 21:54 40.71601 -74.31709 3006 ft 216 kts 310°
2026-05-03 21:55 40.72877 -74.32646 3020 ft 220 kts 346°
2026-05-03 21:55 40.74409 -74.32808 3041 ft 221 kts 352°
2026-05-03 21:55 40.75959 -74.32943 3005 ft 224 kts 351°
2026-05-03 21:55 40.77543 -74.33080 3039 ft 231 kts 352°
2026-05-03 21:56 40.79160 -74.33168 3013 ft 240 kts
2026-05-03 21:56 40.80686 -74.32269 3000 ft 248 kts 39°
2026-05-03 21:56 40.81667 -74.30396 3014 ft 248 kts 61°
2026-05-03 21:56 40.82166 -74.28240 3004 ft 244 kts 77°
2026-05-03 21:57 40.82361 -74.26045 2990 ft 238 kts 81°
2026-05-03 21:57 40.82501 -74.23886 3014 ft 237 kts 81°
2026-05-03 21:57 40.82640 -74.21756 2985 ft 238 kts 81°
2026-05-03 21:57 40.82788 -74.19583 2857 ft 238 kts 81°
2026-05-03 21:58 40.82942 -74.17399 2659 ft 237 kts 81°
2026-05-03 21:58 40.83041 -74.16007 2547 ft 231 kts 81°
2026-05-03 21:58 40.83235 -74.13306 2293 ft 218 kts 81°
2026-05-03 21:58 40.83388 -74.11335 2123 ft 209 kts 76°
2026-05-03 21:59 40.84028 -74.09780 1896 ft 188 kts 30°
2026-05-03 21:59 40.85171 -74.09357 1788 ft 167 kts 352°
2026-05-03 21:59 40.86406 -74.09270 1686 ft 188 kts 360°
2026-05-03 21:59 40.87690 -74.08603 1496 ft 215 kts 36°
2026-05-03 22:00 40.88393 -74.06816 1417 ft 227 kts 81°
2026-05-03 22:00 40.88063 -74.04852 1385 ft 224 kts 125°
2026-05-03 22:00 40.86877 -74.03662 1390 ft 212 kts 171°
2026-05-03 22:00 40.85479 -74.03741 1436 ft 201 kts 200°
2026-05-03 22:01 40.84109 -74.04201 1414 ft 201 kts 200°
2026-05-03 22:01 40.82782 -74.04648 1414 ft 194 kts 200°
2026-05-03 22:01 40.81482 -74.05087 1389 ft 192 kts 200°
2026-05-03 22:01 40.80241 -74.05511 1409 ft 192 kts 200°
2026-05-03 22:02 40.78900 -74.05781 1401 ft 196 kts 189°
2026-05-03 22:02 40.77563 -74.05918 1397 ft 189 kts 188°
2026-05-03 22:02 40.76253 -74.05981 1386 ft 187 kts 188°
2026-05-03 22:02 40.74993 -74.06201 1449 ft 173 kts 203°
2026-05-03 22:03 40.73852 -74.06778 1707 ft 179 kts 213°
2026-05-03 22:03 40.72785 -74.07649 1654 ft 181 kts 225°
2026-05-03 22:03 40.71908 -74.08756 1591 ft 172 kts 233°
2026-05-03 22:03 40.71156 -74.09923 1412 ft 161 kts 239°
2026-05-03 22:04 40.70546 -74.11100 1183 ft 150 kts 248°
2026-05-03 22:04 40.70134 -74.12328 875 ft 144 kts 258°
2026-05-03 22:04 40.69958 -74.13606 597 ft 140 kts 274°
2026-05-03 22:04 40.70064 -74.14860 294 ft 141 kts 282°
2026-05-03 22:05 40.70149 -74.16168 46 ft 140 kts 279°
2026-05-03 22:05 40.70226 -74.17333 24 ft 96 kts 275°
2026-05-03 22:05 40.70211 -74.17752 25 ft 24 kts 248°
2026-05-03 22:05 40.70177 -74.17853 26 ft 7 kts 244°
2026-05-03 22:06 40.70152 -74.17908 29 ft 7 kts 231°
2026-05-03 22:06 40.70111 -74.17934 26 ft 7 kts 180°
2026-05-03 22:06 40.70081 -74.17896 24 ft 7 kts 99°
2026-05-03 22:06 40.70080 -74.17886 26 ft 7 kts 98°